Regional Weather Roundup
Issued by NWS

Home | Current Version | Previous Version | Graphics & Text | Print | Product List | Glossary Off
Versions: 1 2 3 4 5 6 7 8 9 10 11 12 13 14 15 16 17 18 19 20 21 22 23 24 25 26 27 28

000
ASUS45 KTFX 180210
RWRMT
MONTANA REGIONAL WEATHER ROUNDUP
NATIONAL WEATHER SERVICE GREAT FALLS MT
700 PM MST SUN DEC 17 2017

NOTE: "FAIR" INDICATES FEW OR NO CLOUDS BELOW 12000 FEET WITH NO
SIGNIFICANT WEATHER AND/OR OBSTRUCTIONS TO VISIBILITY.

MTZ001>007-043-180300-
WEST OF THE DIVIDE

CITY           SKY/WX    TMP DP  RH WIND       PRES   REMARKS
KALISPELL      CLOUDY    32  27  81 S10       29.94F WCI  24
MISSOULA       CLOUDY    25  20  81 SW3       30.03F
BUTTE          CLOUDY    27  20  75 NW6       30.00S WCI  20
MULLAN PASS    LGT SNOW  24  20  84 S8        29.88F FOG     WCI  15
ANACONDA         N/A     30  19  64 SE9       30.00S WCI  22
DEER LODGE       N/A     27  19  74 CALM      30.01R
EUREKA           N/A     34  25  69 MISG      29.89F
HAMILTON         N/A     34  19  55 S6        30.02F WCI  29
LIBBY            N/A     28  25  86 S3        29.92F
PLAINS           N/A     31  24  75 CALM      29.99F
RONAN            N/A     32  27  82 SE3       30.01R
$$

MTZ008-052>055-180300-
SOUTHWEST MONTANA

CITY           SKY/WX    TMP DP  RH WIND       PRES   REMARKS
BOZEMAN        CLOUDY    23  18  81 SW5       30.00R
DILLON         CLOUDY    26  17  68 SW10      30.03R WCI  16
W YELLOWSTONE  LGT SNOW  16  14  93 SW9       30.11S WCI   4
ENNIS          CLOUDY    23  18  80 S18       30.10R WCI   9
THREE FORKS      N/A     30  22  72 W17       29.98F WCI  18
TWIN BRIDGES     N/A     27  15  60 CALM      30.03R
$$

MTZ009-010-012-014-046-048-049-054-180300-
EAST SLOPES AND CENTRAL MONTANA

CITY           SKY/WX    TMP DP  RH WIND       PRES   REMARKS
CUT BANK       FAIR      33  23  66 W21       29.73R WCI  21
GREAT FALLS    MOCLDY    36  20  52 SW32G43   29.80F WCI  23
MALMSTROM AFB  CLOUDY    36  22  56 SW32G45   29.82S WCI  23
HELENA         CLOUDY    30  20  66 E6        29.98R WCI  24
BOWMANS CRNR   MOCLDY    30  20  68 SW36G41   29.82R WCI  14
CHOTEAU          N/A     37  21  52 S9G16     29.80S WCI  31
FAIRFIELD      MOCLDY    33  20  59 S29G37    29.80S WCI  19
POWER          CLOUDY    33  21  62 SW25G36   29.78S WCI  20
RAYNESFORD     MOCLDY    38  21  50 W28G41    29.78S WCI  26
ULM            CLOUDY    36  22  55 SW25G33   29.87R WCI  24
$$

MTZ011-013-016-021-045-047-050-051-180300-
NORTH CENTRAL MONTANA

CITY           SKY/WX    TMP DP  RH WIND       PRES   REMARKS
HAVRE          FAIR      36  24  62 SW18      29.72F WCI  26
LEWISTOWN      FAIR      32  22  66 SW16      29.79S WCI  21
N BAR RANCH    FAIR      34  18  51 NW9       29.79S WCI  26
CHINOOK          N/A     39  23  52 W14G22    29.71S WCI  31
DENTON         FAIR      38  20  48 MISG      29.73S
GEYSER         MOCLDY    34  21  59 W8        29.78S WCI  27
GRASS RANGE    FAIR      34  22  61 W18       29.73R WCI  23
STANFORD       MOCLDY    33  22  63 SW20      29.78S WCI  22
WINIFRED       FAIR      37  20  52 W18G25    29.75F WCI  27
$$

MTZ017>020-022>027-061-062-180300-
NORTHEAST MONTANA

CITY           SKY/WX    TMP DP  RH WIND       PRES   REMARKS
GLASGOW        MOCLDY    32  23  69 W7        29.70F WCI  26
GLENDIVE       CLOUDY    36  19  50 W13       29.74S WCI  27
JORDAN           N/A     39  21  48 W7        29.74S
SIDNEY         CLOUDY    38  19  46 SW9       29.72S WCI  31
WOLF POINT     MOCLDY    35  26  69 W9        29.72S WCI  28
MALTA          CLEAR     37  25  60 W10       29.72R WCI  30
PLENTYWOOD       N/A     28  25  86 CALM      29.66S
POPLAR           N/A     34  25  69 SW5       29.72F
$$

MTZ028>42-056>058-180300-
SOUTHCENTRAL AND SOUTHEAST MONTANA

CITY           SKY/WX    TMP DP  RH WIND       PRES   REMARKS
BAKER          CLOUDY    34  23  64 W17       29.77S WCI  23
BILLINGS       MOCLDY    30  23  75 SW20      29.86R WCI  17
LIVINGSTON     CLOUDY    32  21  64 SW30G45   29.92F WCI  18
MILES CITY     CLOUDY    37  21  52 W15       29.78R WCI  28
BIG TIMBER     CLEAR     32  19  59 W35G44    29.90R WCI  17
FORSYTH          N/A     37  19  48 SW9       29.80R WCI  31
HARLOWTON      MOCLDY    31  20  65 W35G46    29.83R WCI  15
LAUREL           N/A     28  25  86 SW14G22   29.88R WCI  17
ROUNDUP          N/A     36  16  44 SW21      29.74S WCI  25
$$

REGIONAL REPORTS...DAKOTAS

CITY           SKY/WX    TMP DP  RH WIND       PRES   REMARKS
WILLISTON      MOCLDY    31  20  63 SW6       29.70S WCI  25
MINOT          CLOUDY    36  26  67 SW10      29.67S WCI  28
DICKINSON      CLOUDY    35  20  54 W15       29.71S WCI  25
BEACH          CLOUDY    34  19  55 W12       29.77R WCI  25
CROSBY         FAIR      28  21  74 SW12      29.65R WCI  18
TIOGA          FAIR      30  19  64 W14       29.67S WCI  20
BISMARCK       FAIR      36  21  54 SW9       29.77F WCI  29
GRAND FORKS    MOCLDY    21  20  96 S13       29.80S FOG     WCI   9
FARGO          FOG       31  30  96 S10       29.85F VSB 1/2 WCI  22
BUFFALO SD       N/A     31  24  75 SW12      29.72S WCI  22
RAPID CITY     MOCLDY    30  22  72 W6        29.84R WCI  24
$$

REGIONAL REPORTS...WYOMING/IDAHO/WASHINGTON

CITY           SKY/WX    TMP DP  RH WIND       PRES   REMARKS
GILLETTE       FAIR      25  16  68 SW10      29.85S WCI  15
SHERIDAN       FAIR      17  15  92 CALM      29.85S
BUFFALO WY     FAIR      26  14  60 SW5       29.85S
CODY           FAIR      30  18  60 NW8G26    29.89R WCI  22
YELLOWSTONE LA   N/A     13  10  88 CALM      30.10R
IDAHO FALLS    CLOUDY    23  19  85 CALM      30.22S
SALMON         CLOUDY    22  14  71 CALM      30.19R
BOISE          CLOUDY    34  22  61 SW3       30.24R
SPOKANE        CLOUDY    33  32  96 S12       29.95F WCI  24
$$

REGIONAL REPORTS...ALBERTA

CITY           SKY/WX    TMP DP  RH WIND       PRES   REMARKS
EDMONTON       CLEAR     34  16  47 W10       29.53R WCI  26
CALGARY        CLOUDY    39  14  35 W7        29.57F
MEDICINE HAT   CLOUDY    37  25  60 S9        29.62F WCI  31
$$

REGIONAL REPORTS...SASKATCHEWAN

CITY           SKY/WX    TMP DP  RH WIND       PRES   REMARKS
SWIFT CURRENT  MOCLDY    32  25  74 SW13G18   29.58F WCI  22
REGINA         MOCLDY    30  27  86 SW9       29.56S WCI  22
SASKATOON      PTCLDY    30  23  74 SW13      29.48S WCI  20
$$




USA.gov is the U.S. government's official web portal to all federal, state and local government web resources and services.